Location: Mlada Boleslav
(50.4170°N, 14.9000°E)
Time: 00:15:21
(UTC+01:00)

ISS - Visible Passes

Search period start: 29 November 2023 00:00
Search period end: 09 December 2023 00:00
Orbit: 416 x 418 km, 51.6° (Epoch: 28 November)

Date Brightness Start Highest point End Pass type
(mag) Time Alt. Az. Time Alt. Az. Time Alt. Az.
29 Nov -3.7 16:41:04 10° W 16:44:26 69° N 16:47:48 10° E visible
29 Nov -3.5 18:17:54 10° WNW 18:21:00 66° SW 18:21:00 66° SW visible
30 Nov -3.8 17:29:33 10° WNW 17:32:55 88° SSW 17:34:47 25° ESE visible
30 Nov -0.9 19:06:31 10° W 19:07:41 17° W 19:07:41 17° W visible
01 Dec -3.8 16:41:10 10° WNW 16:44:31 78° N 16:47:53 10° E visible
01 Dec -2.6 18:18:00 10° W 18:21:09 38° SSW 18:21:32 37° SSW visible
02 Dec -3.1 17:29:31 10° WNW 17:32:48 54° SSW 17:35:29 14° SE visible
02 Dec -0.6 19:07:20 10° WSW 19:08:25 13° SW 19:08:25 13° SW visible
03 Dec -3.5 16:41:01 10° WNW 16:44:23 73° SSW 16:47:43 10° ESE visible
03 Dec -1.2 18:18:14 10° W 18:20:44 19° SW 18:22:31 13° S visible
04 Dec -1.7 17:29:27 10° W 17:32:23 28° SSW 17:35:18 10° SSE visible
05 Dec -2.3 16:40:46 10° W 16:43:56 40° SSW 16:47:06 10° SE visible
06 Dec -0.6 17:29:48 10° WSW 17:31:36 14° SW 17:33:26 10° S visible
07 Dec -0.8 16:40:36 10° W 16:43:11 21° SW 16:45:45 10° SSE visible
